Location: Central Falls
(41.8900°N, 71.3929°W)
Time: 15:24:01
(UTC+00:00)

Vanguard 1 - Pass Details

Date: 04 December 2023
Orbit: 653 x 3826 km, 34.3° (Epoch: 24 February)

Event Time Altitude Azimuth Distance (km) Brightness Sun altitude
Rises 03:34:37 0° 278° (W) 7,363 14.8 -66.5°
Reaches altitude 10° 03:39:20 10° 275° (W) 6,589 14.4 -67.1°
Enters shadow 03:49:02 33° 262° (W) 5,176 13.5 -68.0°
Maximum altitude 04:01:18 56° 206° (SSW) 4,199 - -69.0°
Drops below altitude 10° 04:20:26 10° 134° (SE) 5,816 - -70.1°
Sets 04:24:18 0° 130° (SE) 6,492 - -70.2°
